Location: Belfast
(54.5830°N, 5.9330°W)
Time: 14:36:27
(UTC+01:00)

ISS - Pass Details

Date: 15 September 2018
Orbit: 402 x 408 km, 51.6° (Epoch: 18 September)

Event Time Altitude Azimuth Distance (km) Brightness Sun altitude
Exits shadow 05:33:28 20° 221° (SW) 1,014 -2.4 -12.4°
Maximum altitude 05:33:54 20° 209° (SSW) 996 -2.3 -12.3°
Drops below altitude 10° 05:36:23 10° 160° (SSE) 1,456 -1.0 -12.0°
Sets 05:38:47 0° 143° (SE) 2,311 0.2 -11.6°
